Simultaneous Nadir Overpasses (SNOs) Predictions

Prediction of SNOs between NOAA-19 and TERRA Satellite Orbit:

Table of predicted SNOs for the next 14.0 days since TLE Epoch: 5/1/2021
Index Date (NOAA-19) Time (NOAA-19) Lat,Lon (NOAA-19) SZA (NOAA-19 ) Date (TERRA) Time (TERRA) Lat,Lon (TERRA) SZA (TERRA ) Distance(km) Time Diff (sec)
1 05/01/2021 17:52:12 80.20, -55.37 66.56 05/01/2021 17:53:20 80.20, -55.38 66.58 0.82 68
2 05/01/2021 18:43:11 -80.19, 112.09 113.45 05/01/2021 18:42:47 -80.19, 112.21 113.44 2.39 24
3 05/04/2021 00:16:23 80.20,-151.21 65.92 05/04/2021 00:16:29 80.18,-151.31 65.89 2.60 6
4 05/06/2021 05:49:33 -80.21, -54.58 114.72 05/06/2021 05:50:11 -80.20, -54.62 114.71 1.49 38
5 05/06/2021 06:40:34 80.19, 112.93 65.29 05/06/2021 06:39:37 80.20, 113.03 65.28 1.98 57
6 05/08/2021 11:22:46 80.21, 42.11 64.69 05/08/2021 11:23:52 80.21, 42.07 64.71 0.87 66
7 05/08/2021 12:13:43 -80.19,-150.30 115.31 05/08/2021 12:13:19 -80.21,-150.28 115.30 2.07 24
8 05/10/2021 17:46:57 80.21, -53.79 64.11 05/10/2021 17:47:00 80.22, -53.64 64.13 3.17 3
9 05/12/2021 23:20:05 -80.21, 42.94 116.45 05/12/2021 23:20:42 -80.23, 43.04 116.41 2.65 37



Historial Predications of SNOs between NOAA-19 and TERRA
